Meteo Giornale » Osservazioni meteo Peru » Tacna
ore: 00:00 - Osservazioni Meteo Tacna
Lat. 18° 4' S Lon. 70° 18' W Alt. 468 metri s.l.m.
16 °C
Coperto
Temp. 24 Ore
16 °C
22 °C
Sud-Ovest
7.4 Km/h
Dew point 14 °C
Umidità 87 %
Visibilità 7 Km
Il sole sorge alle ore 05:48
Il sole tramonta alle ore 17:34
| Data e Ora | Cielo e Fenomeni | T °C | DP °C | Um. % | Pres. hPa | Vis. km | Vento km/h | |
|---|---|---|---|---|---|---|---|---|
| Oggi h: 00:00 | Coperto | 16 | 14 | 87 | 1017 | 7 | SO 7.4 | |
| Ieri h: 23:00 | Coperto | 16 | 14 | 87 | 1018 | 7 | O/SO 9.3 | |
| Ieri h: 22:00 | Coperto | 16 | 14 | 87 | 1017 | 7 | SO 11.1 | |
| Ieri h: 21:00 | Coperto | 17 | 14 | 82 | 1017 | 8 | O/SO 11.1 | |
| Ieri h: 20:00 | Coperto | 17 | 14 | 82 | 1016 | 5 | SO 11.1 | |
| Ieri h: 19:00 | Coperto | 17 | 13 | 77 | 1016 | 10 | SO 11.1 | |
| Ieri h: 18:00 | Coperto | 17 | 13 | 77 | 1015 | 10 | SO 9.3 | |
| Ieri h: 17:00 | Nuvoloso | 18 | 13 | 72 | 1015 | 10 | SO 13 | |
| Ieri h: 16:00 | Poco Nuvoloso | 20 | 12 | 59 | 1015 | 10 | SO 16.7 | |
| Ieri h: 15:00 | Poco Nuvoloso | 21 | 12 | 56 | 1014 | 10 | SO 20.3 | |
| Ieri h: 14:00 | Poco Nuvoloso | 22 | 13 | 56 | 1015 | 10 | SO 11.1 | |
| Ieri h: 13:00 | Poco Nuvoloso | 21 | 12 | 56 | 1016 | 10 | O/SO 14.8 | |
| Ieri h: 12:00 | Poco Nuvoloso | 20 | 12 | 59 | 1017 | 10 | N 5.5 | |
| Ieri h: 11:00 | Nuvoloso | 18 | 12 | 67 | 1018 | 10 | N 5.5 | |
| Ieri h: 10:00 | Molto Nuvoloso | 17 | 13 | 77 | 1018 | 8 | N 3.7 | |
| Ieri h: 09:00 | Coperto | 17 | 13 | 77 | 1018 | 8 | N 1.8 | |
| Ieri h: 08:00 | Coperto | 16 | 12 | 77 | 1018 | 8 | N 5.5 | |
| Ieri h: 07:00 | Coperto | 17 | 12 | 72 | 1018 | 8 | S 11.1 | |
| Ieri h: 06:00 | Coperto | 16 | 13 | 82 | 1017 | 10 | SO 9.3 | |
| Ieri h: 05:00 | Coperto | 16 | 12 | 77 | 1017 | 10 | S/SO 13 | |
| Ieri h: 04:00 | Coperto | 16 | 12 | 77 | 1017 | 10 | O 7.4 | |
| Ieri h: 03:00 | Coperto | 17 | 12 | 72 | 1018 | 10 | N 3.7 | |
| Ieri h: 02:00 | Coperto | 16 | 12 | 77 | 1018 | 10 | E/SE 9.3 | |
| Ieri h: 01:00 | Coperto | 16 | 13 | 82 | 1018 | 10 | SO 11.1 | |



